065  
ASUS42 KILM 240113  
RWRILM  
RWRILM  
REGIONAL HOURLY WEATHER ROUNDUP  
NATIONAL WEATHER SERVICE WILMINGTON NC  
800 PM EST SAT FEB 23 2019  
 
NOTE: "FAIR" INDICATES FEW OR NO CLOUDS BELOW 12,000 FEET WITH NO  
SIGNIFICANT WEATHER AND/OR S TO VISIBILITY
.  
   
..............WFO WILMINGTON COUNTY WARNING AREA............
 
 
   
.....COASTAL NC AND SC COUNTIES...
 
 
 
CITY SKY/WX TMP DP RH WIND PRES REMARKS
 
WILMINGTON FOG 50 49 96 NW10 30.14R VSB 1/2  
N MYRTLE BEACH CLOUDY 50 50 100 N7 30.13S  
MYRTLE BEACH CLOUDY 52 49 89 N8 30.15R  
   
.....INLAND NC AND SC COUNTIES....
 
 
 
CITY SKY/WX TMP DP RH WIND PRES REMARKS
 
LUMBERTON NOT AVBL  
ELIZABETHTOWN LGT RAIN 45 45 99 N3 30.15S FOG  
WHITEVILLE CLOUDY 47 46 98 CALM 30.14F FOG  
FLORENCE CLOUDY 46 45 96 N7 30.15S  
DARLINGTON CLOUDY 44 43 96 N5 30.15F FOG  
KINGSTREE CLOUDY 46 45 93 N3 30.15R  
HARTSVILLE CLOUDY 41 41 100 NE3 30.14F FOG  
BENNETTSVILLE CLOUDY 43 43 100 CALM 30.15F  
CONWAY CLOUDY 46 46 100 N3 30.15S FOG  
GEORGETOWN CLOUDY 52 50 93 CALM 30.14S  
MARION CLOUDY 45 45 100 NE5 30.15F FOG  
   
...................REST OF NORTH CAROLINA...................
 
 
   
........EASTERN NC......
 
 
 
CITY SKY/WX TMP DP RH WIND PRES REMARKS
 
CAPE HATTERAS MOCLDY 68 60 75 S13 30.09R  
JACKSONVILLE FOG 49 49 100 NW5 30.14S VSB 3/4  
MOREHEAD CITY CLOUDY 55 53 93 N5 30.10R  
KENANSVILLE CLOUDY 46 46 100 NW6 30.15S FOG  
NEW BERN CLOUDY 50 50 100 NW7 30.12S FOG  
ELIZABETH CITY LGT RAIN 54 53 97 E6 30.06F FOG  
   
........CENTRAL NC......
 
 
 
CITY SKY/WX TMP DP RH WIND PRES REMARKS
 
RALEIGH DURHAM LGT RAIN 41 41 100 VRB3 30.15R FOG  
ROCKY MOUNT CLOUDY 44 43 96 VRB5 30.14S  
ROANOKE RAPIDS NOT AVBL  
FAYETTEVILLE CLOUDY 44 42 93 N5 30.14F  
HOFFMAN CLOUDY 42 41 97 SE7 30.13F  
   
........WESTERN NC......
 
 
 
CITY SKY/WX TMP DP RH WIND PRES REMARKS
 
CHARLOTTE CLOUDY 43 39 86 E3 30.14F  
GREENSBORO CLOUDY 39 38 96 NE8 30.12F WCI 33  
HICKORY NOT AVBL  
BOONE NOT AVBL  
ASHEVILLE NOT AVBL  
   
....................REST OF SOUTH CAROLINA..................
 
 
   
........EASTERN SC......
 
 
 
CITY SKY/WX TMP DP RH WIND PRES REMARKS
 
CHARLESTON CLOUDY 54 50 86 N6 30.12S  
BEAUFORT MCAS CLOUDY 59 58 96 N7 30.11R  
HILTON HEAD FOG 59 57 94 N5 30.11F VSB 1/4  
   
........CENTRAL SC......
 
 
 
CITY SKY/WX TMP DP RH WIND PRES REMARKS
 
COLUMBIA CLOUDY 46 46 100 NE3 30.13F  
ORANGEBURG CLOUDY 48 46 93 NE5 30.13S FOG  
SUMTER SHAW CLOUDY 45 45 99 NE6 30.14S  
   
........WESTERN SC......
 
 
 
CITY SKY/WX TMP DP RH WIND PRES REMARKS
 
GREENVILLE NOT AVBL  
ROCK HILL CLOUDY 42 42 100 CALM 30.14F  
ANDERSON CLOUDY 44 42 93 E8 30.11F  
CLEMSON NOT AVBL  
GREENWOOD CLOUDY 42 42 100 E8 30.13F FOG  
 
   
..................COASTAL AND OFFSHORE REPORTS...............
 
 
   
...............LOCAL PIERS AND NC RESERVE.............
 
 
 
STATION/POSITION TIME SKY/WX TEMP WIND PRES VSBY
 
AIR SEA DIR/SP/G  
(UTC) (F) (DEG/KT/KT) (MB) (MI)  
JOHNY MRCER PIER 0048 51 54 310/ 8/ 10 1020.1R  
NC RESRV MASNBRO NOT AVBL  
OCEAN CREST PIER NOT AVBL  
SPRINGMAID PIER NOT AVBL  
 
   
...............COASTAL AND OFFSHORE BUOYS.............
 
 
 
STATION/POSITION TIME SKY/WX TEMP WIND PRES VSBY
 
AIR SEA DIR/SP/G  
(UTC) (F) (DEG/KT/KT) (MB) (MI)  
DIMNDSHOAL 41025 NOT AVBL  
CAPE LOOKOUT 0000 160/ 11/ 12 1018.9F  
ONSLOW BAY 41036 NOT AVBL  
ONSLOW BAY 41064 0008 61 66 330/ 8/ 12 1018.4R  
ONSLOW BAY 41159 0100 65 N/A  
WVE H/P(F/S)= 6/ 7  
 
MASNBO INL 41110 0030 54 N/A  
WVE H/P(F/S)= 4/ 7  
 
WILM HARBR 41108 0030 54 N/A  
WVE H/P(F/S)= 3/ 6  
 
27SE WRITB 41037 0008 57 64 20/ 6/ 10 1019.0F  
FRYING PAN 41013 0050 58 66 350/ 8/ 10 1019.5F  
WVE H/P(F/S)= 4/ 7 SWL H/P/D(F/S/D)= 3/ 70/ 7  
 
SUNST NRSH 41024 0008 51 55 340/ 8/ 12 1020.1F  
CAPRS NRSH 41029 0008 54 56 70/ 10/ 12 1019.8R  
EDISTO 41004 0050 67 60/ 6/ 8 1019.6R  
WVE H/P(F/S)= 4/ 8 SWL H/P/D(F/S/D)= 3/ 90/ 8  
 
   
.........OFFSHORE BUOYS BEYOND 100 NM OFFSHORE........
 
   
....IN A TRIANGLE---HAT TO BERMUDA TO BAHAMAS TO HAT..
 
 
 
 
STATION/POSITION TIME SKY/WX TEMP WIND PRES VSBY
 
AIR SEA DIR/SP/G  
(UTC) (F) (DEG/KT/KT) (MB) (MI)  
150E HAT 41001 NOT AVBL  
W BERMUDA 41048 NOT AVBL  
ATLANTIC S 41049 0050 74 60/ 14/ 16 1024.8R  
WVE H/P(F/S)= 4/11 SWL H/P/D(F/S/D)= 3/ 10/11  
 
E BAHAMAS 41046 0050 90/ 10/ 12 1024.1R  
WVE H/P(F/S)= 4/ 8 SWL H/P/D(F/S/D)= 3/120/ 8  
 
NE BAHAMAS 41047 0050 140/ 8/ 10 1024.2F  
WVE H/P(F/S)= 3/ 8 SWL H/P/D(F/S/D)= 3/110/ 8  
 
120E CANVRL41010 0050 75 76 140/ 10/ 14 1021.1R  
WVE H/P(F/S)= 4/ 8 SWL H/P/D(F/S/D)= 3/120/ 8  
 
END  
 
 
CLICK HERE TO GO TO PREVIOUS BULLETINS.

The Nexlab NC Page
The Nexlab SC Page Main Text Page